Date String (YYYY-MM-DD hh:mm:ss) UTC,Instrument flags,Ambient pressure (hPa),Sample flow (lpm),Bypass flow (lpm),Sample temperature (°C),Ambient temperature (°C),ASC tube jacket temperature (°C),LED temperature (°C),Box temperature (°C),Sample RH (%),Span deviation,Mass concentration (μg/m³),Mass concentration (μg/m³),Mass concentration (μg/m³)
DateTimeUTC,F1_M11,P_M11,Q1_M11,Q2_M11,T1_M11,T2_M11,T3_M11,T4_M11,T5_M11,U1_M11,ZSPAN_M11,X0_M11,X2_M11,X1_M11
2021-10-21 13:00:00,,0831.7,5.01,0.00,24.5,23.7,00.0,33.6,26.4,15.5,0001.1,0015.09,0004.64,0003.72
2021-10-21 13:01:00,,0831.7,5.00,0.00,24.5,23.7,00.0,33.6,26.4,15.5,0000.6,0015.06,0004.59,0003.71
2021-10-21 13:02:00,,0831.7,4.99,0.00,24.5,23.7,00.0,33.6,26.3,15.5,0000.4,0015.06,0004.53,0003.70
2021-10-21 13:03:00,,0831.6,5.01,0.00,24.5,23.7,00.0,33.6,26.3,15.5,0000.6,0014.23,0004.47,0003.68
2021-10-21 13:04:00,,0831.7,4.99,0.00,24.5,23.7,00.0,33.6,26.3,15.4,0000.6,0013.65,0004.44,0003.64
2021-10-21 13:05:00,,0831.7,5.00,0.00,24.5,23.7,00.0,33.6,26.3,15.4,0000.5,0012.95,0004.38,0003.60
2021-10-21 13:06:00,,0831.7,5.01,0.00,24.6,23.7,00.0,33.6,26.4,15.4,0001.0,0013.04,0004.32,0003.55
2021-10-21 13:07:00,,0831.7,4.99,0.00,24.6,23.7,00.0,33.6,26.4,15.4,0001.7,0013.14,0004.25,0003.51
2021-10-21 13:08:00,,0831.7,5.01,0.00,24.6,23.8,00.0,33.6,26.4,15.3,0002.8,0012.66,0004.17,0003.45
2021-10-21 13:09:00,,0831.7,5.00,0.00,24.6,23.8,00.0,33.6,26.4,15.2,0003.8,0012.44,0004.14,0003.40
2021-10-21 13:10:00,,0831.7,4.99,0.00,24.6,23.8,00.0,33.6,26.4,15.2,0004.4,0011.69,0004.11,0003.34
2021-10-21 13:11:00,,0831.7,5.01,0.00,24.6,23.8,00.0,33.6,26.4,15.2,0004.5,0011.82,0004.02,0003.29
2021-10-21 13:12:00,,0831.7,5.00,0.00,24.6,23.8,00.0,33.6,26.5,15.2,0004.3,0011.30,0003.97,0003.25
2021-10-21 13:13:00,,0831.7,4.99,0.00,24.6,23.8,00.0,33.6,26.5,15.3,0004.8,0011.02,0003.96,0003.22
2021-10-21 13:14:00,,0831.7,5.00,0.00,24.6,23.8,00.0,33.6,26.5,15.3,0005.3,0011.66,0003.94,0003.18
2021-10-21 13:15:00,,0831.7,5.01,0.00,24.6,23.8,00.0,33.6,26.5,15.3,0005.1,0012.54,0003.92,0003.16
2021-10-21 13:16:00,,0831.7,5.01,0.00,24.6,23.8,00.0,33.6,26.5,15.3,0003.7,0012.54,0003.91,0003.15
2021-10-21 13:17:00,,0831.7,5.00,0.00,24.6,23.8,00.0,33.6,26.5,15.2,0000.0,0011.95,0003.86,0003.13
2021-10-21 13:18:00,,0831.8,5.01,0.00,24.6,23.8,00.0,33.6,26.5,15.3,0000.0,0011.22,0003.82,0003.09
2021-10-21 13:19:00,,0831.7,5.00,0.00,24.6,23.7,00.0,33.6,26.5,15.3,0001.0,0011.22,0003.83,0003.08
2021-10-21 13:20:00,,0831.8,5.00,0.00,24.6,23.7,00.0,33.6,26.4,15.3,0000.2,0011.22,0003.81,0003.07
2021-10-21 13:21:00,,0831.8,5.00,0.00,24.6,23.7,00.0,33.6,26.4,15.3,0001.0,0011.09,0003.78,0003.09
2021-10-21 13:22:00,,0831.7,5.00,0.00,24.6,23.7,00.0,33.6,26.4,15.3,0000.1,0011.10,0003.80,0003.11
2021-10-21 13:23:00,,0831.7,5.00,0.00,24.5,23.7,00.0,33.6,26.4,15.3,0000.0,0011.29,0003.87,0003.09
2021-10-21 13:24:00,,0831.7,5.00,0.00,24.6,23.7,00.0,33.6,26.3,15.3,0000.0,0011.56,0003.86,0003.06
2021-10-21 13:25:00,,0831.7,5.00,0.00,24.6,23.7,00.0,33.6,26.4,15.4,0000.9,0011.32,0003.91,0003.06
2021-10-21 13:26:00,,0831.7,4.99,0.00,24.5,23.7,00.0,33.6,26.4,15.4,0000.0,0010.60,0003.91,0003.05
2021-10-21 13:27:00,,0831.8,5.00,0.00,24.5,23.7,00.0,33.6,26.4,15.4,0000.0,0010.41,0003.89,0003.04
2021-10-21 13:28:00,,0831.9,5.01,0.00,24.5,23.7,00.0,33.6,26.4,15.4,0000.0,0011.10,0003.88,0003.04
2021-10-21 13:29:00,,0832.0,5.01,0.00,24.5,23.7,00.0,33.6,26.4,15.4,0001.2,0011.08,0003.88,0003.05
2021-10-21 13:30:00,,0832.0,4.99,0.00,24.5,23.7,00.0,33.6,26.4,15.4,0002.6,0011.54,0003.88,0003.04
2021-10-21 13:31:00,,0832.0,5.01,0.00,24.6,23.7,00.0,33.6,26.4,15.4,0003.2,0011.69,0003.91,0003.07
2021-10-21 13:32:00,,0832.0,5.00,0.00,24.6,23.7,00.0,33.6,26.4,15.4,0003.4,0011.43,0003.92,0003.08
2021-10-21 13:33:00,,0832.0,5.00,0.00,24.6,23.7,00.0,33.6,26.4,15.4,0003.6,0011.16,0003.94,0003.09
2021-10-21 13:34:00,,0832.0,4.98,0.00,24.6,23.7,00.0,33.6,26.4,15.3,0003.7,0011.25,0003.90,0003.10
2021-10-21 13:35:00,,0832.1,5.01,0.00,24.6,23.7,00.0,33.6,26.4,15.4,0003.1,0011.04,0003.89,0003.12
2021-10-21 13:36:00,,0832.1,4.99,0.00,24.6,23.8,00.0,33.6,26.4,15.4,0003.0,0011.17,0003.82,0003.11
2021-10-21 13:37:00,,0832.1,5.00,0.00,24.6,23.8,00.0,33.6,26.4,15.4,0002.9,0010.98,0003.80,0003.13
2021-10-21 13:38:00,,0832.1,4.99,0.00,24.6,23.8,00.0,33.6,26.4,15.4,0003.1,0010.68,0003.80,0003.14
2021-10-21 13:39:00,,0832.1,5.01,0.00,24.6,23.8,00.0,33.6,26.4,15.5,0003.0,0009.76,0003.80,0003.15
2021-10-21 13:40:00,,0832.1,4.99,0.00,24.6,23.8,00.0,33.6,26.4,15.4,0002.7,0009.48,0003.81,0003.15
2021-10-21 13:41:00,,0832.1,5.00,0.00,24.6,23.8,00.0,33.6,26.5,15.4,0003.8,0008.83,0003.79,0003.16
2021-10-21 13:42:00,,0832.1,5.00,0.00,24.6,23.8,00.0,33.6,26.4,15.4,0002.4,0008.68,0003.77,0003.16
2021-10-21 13:43:00,,0832.1,5.01,0.00,24.6,23.8,00.0,33.6,26.4,15.4,0001.5,0008.63,0003.79,0003.18
2021-10-21 13:44:00,,0832.2,5.01,0.00,24.6,23.8,00.0,33.6,26.5,15.4,0003.6,0008.72,0003.80,0003.18
2021-10-21 13:45:00,,0832.2,5.00,0.00,24.6,23.8,00.0,33.6,26.5,15.4,0003.9,0008.64,0003.83,0003.19
2021-10-21 13:46:00,,0832.1,5.02,0.00,24.6,23.8,00.0,33.6,26.5,15.4,0004.4,0008.52,0003.84,0003.19
2021-10-21 13:47:00,,0832.2,4.98,0.00,24.6,23.8,00.0,33.6,26.5,15.4,0002.4,0008.04,0003.84,0003.19
2021-10-21 13:48:00,,0832.1,5.00,0.00,24.6,23.8,00.0,33.7,26.5,15.4,0004.3,0008.25,0003.86,0003.18
2021-10-21 13:49:00,,0832.1,4.99,0.00,24.6,23.8,00.0,33.7,26.5,15.4,0004.5,0008.35,0003.87,0003.19
2021-10-21 13:50:00,,0832.1,5.00,0.00,24.6,23.8,00.0,33.7,26.5,15.3,0004.1,0008.38,0003.88,0003.20
2021-10-21 13:51:00,,0832.2,5.00,0.00,24.7,23.8,00.0,33.7,26.5,15.3,0003.4,0008.57,0003.92,0003.20
2021-10-21 13:52:00,,0832.1,4.99,0.00,24.6,23.8,00.0,33.7,26.5,15.4,0003.2,0008.80,0003.99,0003.21
2021-10-21 13:53:00,,0832.1,5.01,0.00,24.7,23.8,00.0,33.7,26.5,15.3,0003.1,0008.93,0004.04,0003.21
2021-10-21 13:54:00,,0832.1,4.99,0.00,24.7,23.8,00.0,33.7,26.5,15.3,0003.1,0008.87,0004.04,0003.20
2021-10-21 13:55:00,,0832.2,5.01,0.00,24.7,23.9,00.0,33.7,26.5,15.3,0003.2,0008.67,0004.02,0003.20
2021-10-21 13:56:00,,0832.2,5.00,0.00,24.7,23.9,00.0,33.7,26.5,15.3,0002.7,0008.50,0003.99,0003.20
2021-10-21 13:57:00,,0832.3,5.01,0.00,24.7,23.9,00.0,33.7,26.5,15.2,0003.0,0008.63,0003.97,0003.20
2021-10-21 13:58:00,,0832.2,5.01,0.00,24.7,23.9,00.0,33.7,26.5,15.2,0002.4,0008.89,0004.00,0003.20
2021-10-21 13:59:00,,0832.3,4.99,0.00,24.7,23.9,00.0,33.7,26.5,15.2,0002.1,0008.82,0004.03,0003.20
